TimeEDT,TemperatureF,Dew PointF,Humidity,Sea Level PressureIn,VisibilityMPH,Wind Direction,Wind SpeedMPH,Gust SpeedMPH,PrecipitationIn,Events,Conditions,WindDirDegrees,DateUTC
12:53 AM,50.0,41.0,71,30.12,10.0,SSE,3.5,-,N/A,,Clear,160,2013-03-31 04:53:00
1:53 AM,50.0,41.0,71,30.10,10.0,SSE,3.5,-,N/A,,Clear,160,2013-03-31 05:53:00
2:53 AM,50.0,39.9,68,30.09,10.0,SSE,4.6,-,N/A,,Clear,160,2013-03-31 06:53:00
3:53 AM,50.0,39.9,68,30.06,10.0,SSE,4.6,-,N/A,,Clear,150,2013-03-31 07:53:00
4:53 AM,48.9,39.9,71,30.04,10.0,Calm,Calm,-,N/A,,Clear,0,2013-03-31 08:53:00
5:53 AM,48.9,41.0,74,30.01,10.0,Calm,Calm,-,N/A,,Overcast,0,2013-03-31 09:53:00
6:53 AM,48.9,42.1,77,30.03,10.0,SSW,3.5,-,0.00,Rain,Light Rain,200,2013-03-31 10:53:00
7:53 AM,48.9,45.0,86,30.03,6.0,Calm,Calm,-,0.02,Rain,Light Rain,0,2013-03-31 11:53:00
8:53 AM,48.9,46.9,93,30.00,2.5,SE,3.5,-,0.09,Rain,Light Rain,140,2013-03-31 12:53:00
9:19 AM,48.2,46.4,93,29.98,3.0,ESE,4.6,-,0.06,Rain,Light Rain,120,2013-03-31 13:19:00
9:53 AM,50.0,48.0,93,29.99,3.0,SSE,5.8,-,0.08,Rain,Light Rain,160,2013-03-31 13:53:00
10:53 AM,53.1,51.1,93,29.96,4.0,SSE,6.9,-,0.01,,Overcast,160,2013-03-31 14:53:00
11:53 AM,61.0,55.0,81,29.93,7.0,South,10.4,18.4,N/A,,Mostly Cloudy,170,2013-03-31 15:53:00
12:53 PM,64.0,55.0,73,29.90,10.0,SSW,9.2,-,N/A,,Overcast,210,2013-03-31 16:53:00
1:53 PM,66.9,53.1,61,29.86,10.0,SW,16.1,20.7,N/A,,Overcast,220,2013-03-31 17:53:00
2:53 PM,64.0,54.0,70,29.85,10.0,SW,9.2,-,0.00,Rain,Light Rain,220,2013-03-31 18:53:00
3:53 PM,66.9,53.1,61,29.83,10.0,SW,11.5,-,0.00,,Overcast,230,2013-03-31 19:53:00
4:53 PM,69.1,54.0,58,29.83,10.0,SSW,17.3,21.9,N/A,,Scattered Clouds,210,2013-03-31 20:53:00
5:53 PM,68.0,54.0,61,29.82,10.0,SW,9.2,-,N/A,,Scattered Clouds,220,2013-03-31 21:53:00
6:53 PM,64.0,53.1,67,29.82,10.0,WSW,10.4,19.6,0.01,Rain,Light Rain,240,2013-03-31 22:53:00
7:53 PM,60.1,53.1,78,29.82,10.0,Calm,Calm,-,0.00,,Overcast,0,2013-03-31 23:53:00
8:53 PM,57.9,54.0,87,29.83,10.0,Calm,Calm,-,N/A,,Overcast,0,2013-04-01 00:53:00
10:53 PM,57.0,54.0,89,29.87,10.0,South,3.5,-,0.02,,Overcast,170,2013-04-01 02:53:00
11:53 PM,55.9,54.0,93,29.85,10.0,Calm,Calm,-,N/A,,Overcast,0,2013-04-01 03:53:00